Terminal Aerodrome Forecast
Issued by NWS Brownsville, TX

Home | Current Version | Previous Version | Text Only | Print | Product List | Glossary On
Versions: 1 2 3 4 5 6 7 8 9 10 11 12 13 14
000
FTUS44 KBRO 040526
TAFHRL
TAF
KHRL 040526Z 0406/0506 13010KT P6SM BKN060
     FM041500 13017G25KT P6SM BKN035
     FM050200 12011KT P6SM SCT040=

USA.gov is the U.S. government's official web portal to all federal, state and local government web resources and services.